Change the Weather History Date:

Monday, January 10, 2011

  Actual Average Record
Temperature  
Mean Temperature 44 °F 51 °F  
Max Temperature 54 °F 59 °F 67 °F (2009)
Min Temperature 34 °F 42 °F 34 °F (2011)
Degree Days  
Heating Degree Days 21    
Month to date heating degree days 164  
Since 1 July heating degree days 1542  
Cooling Degree Days 0    
Month to date cooling degree days 0  
Year to date cooling degree days 0  
Moisture  
Dew Point 29 °F    
Average Humidity 59    
Maximum Humidity 76    
Minimum Humidity 41    
Precipitation  
Precipitation 0.00 in - 1.07 in (1950)
Month to date precipitation 0.98  
Year to date precipitation 0.98  
Since 1 July precipitation 7.96  
Sea Level Pressure  
Sea Level Pressure 30.19 in    
Wind  
Wind Speed 5 mph (ENE)    
Max Wind Speed 12 mph    
Max Gust Speed 16 mph    
Visibility 10 miles    
Events      
T = Trace of Precipitation, MM = Missing Value Source: NWS Daily Summary

Daily Weather History Graph

Daily Weather History Graph

Search for Another Location

Airport or City:

Trip Planner

Search our weather history database for the weather conditions in past years. The results will help you decide how hot, cold, wet, or windy it might be!

Date:

Astronomy

Jan. 10, 2011 Rise Set
Actual Time 7:19 AM PST 5:10 PM PST
Civil Twilight 6:51 AM PST 5:38 PM PST
Nautical Twilight 6:19 AM PST 6:10 PM PST
Astronomical Twilight 5:48 AM PST 6:41 PM PST
Moon 10:28 AM PST (1/10) 11:29 PM PST (1/10)
Length of Visible Light 10h 47m
Length of Day
9h 50m
Waxing Crescent, 35% of the Moon is Illuminated
Jan 10
Waxing Crescent
Jan 12
First Quarter
Jan 19
Full
Jan 26
Last Quarter
Feb 2
New

Hourly Weather History & Observations

Time (PST) Temp. Windchill Dew Point Humidity Pressure Visibility Wind Dir Wind Speed Gust Speed Precip Events Conditions
12:54 AM 37.0 °F 29.8 °F 28.0 °F 70% 30.19 in 10.0 mi East 10.4 mph - N/A   Clear
1:54 AM 36.0 °F 29.0 °F 27.0 °F 70% 30.20 in 10.0 mi East 9.2 mph - N/A   Clear
2:54 AM 36.0 °F 30.3 °F 26.1 °F 67% 30.20 in 10.0 mi East 6.9 mph - N/A   Clear
3:54 AM 37.0 °F 31.0 °F 24.1 °F 59% 30.19 in 10.0 mi East 8.1 mph - N/A   Clear
4:54 AM 35.1 °F 29.3 °F 24.1 °F 64% 30.20 in 10.0 mi East 6.9 mph - N/A   Clear
5:54 AM 35.1 °F 30.1 °F 24.1 °F 64% 30.21 in 10.0 mi ENE 5.8 mph - N/A   Clear
6:54 AM 35.1 °F 30.1 °F 24.1 °F 64% 30.21 in 10.0 mi East 5.8 mph - N/A   Clear
7:54 AM 37.0 °F 31.6 °F 24.1 °F 59% 30.22 in 10.0 mi East 6.9 mph - N/A   Clear
8:54 AM 43.0 °F 40.3 °F 26.1 °F 51% 30.22 in 10.0 mi ENE 4.6 mph - N/A   Clear
9:54 AM 46.0 °F 41.4 °F 27.0 °F 47% 30.22 in 10.0 mi NE 9.2 mph - N/A   Clear
10:54 AM 48.9 °F - 27.0 °F 43% 30.20 in 10.0 mi NE 9.2 mph - N/A   Clear
11:54 AM 52.0 °F - 28.9 °F 41% 30.18 in 10.0 mi NNE 8.1 mph 16.1 mph N/A   Clear
12:54 PM 52.0 °F - 30.9 °F 45% 30.18 in 10.0 mi North 5.8 mph - N/A   Clear
1:54 PM 53.1 °F - 32.0 °F 45% 30.16 in 10.0 mi Variable 6.9 mph - N/A   Clear
2:54 PM 53.1 °F - 32.0 °F 45% 30.16 in 10.0 mi North 6.9 mph - N/A   Clear
3:54 PM 53.1 °F - 30.9 °F 43% 30.18 in 10.0 mi North 4.6 mph - N/A   Clear
4:54 PM 50.0 °F - 30.9 °F 48% 30.19 in 10.0 mi NNE 4.6 mph - N/A   Clear
5:54 PM 46.9 °F - 30.0 °F 52% 30.17 in 10.0 mi Calm Calm - N/A   Clear
6:54 PM 46.0 °F - 30.0 °F 54% 30.18 in 10.0 mi Calm Calm - N/A   Clear
7:54 PM 43.0 °F - 30.9 °F 62% 30.17 in 10.0 mi Calm Calm - N/A   Clear
8:54 PM 42.1 °F 40.2 °F 32.0 °F 67% 30.19 in 10.0 mi SW 3.5 mph - N/A   Clear
9:54 PM 42.1 °F 40.2 °F 32.0 °F 67% 30.19 in 10.0 mi East 3.5 mph - N/A   Clear
10:54 PM 43.0 °F - 33.1 °F 68% 30.20 in 10.0 mi Calm Calm - N/A   Clear
11:54 PM 45.0 °F - 34.0 °F 65% 30.19 in 10.0 mi Calm Calm - N/A   Overcast